Погода в Лопатине

Россия / Республика Мордовия     53°59′40″N   43°07′00″E
темп.,
°C
ветер,
м/с
пор.,
м/с
влажн.,
%
обл.,
%
осадки,
мм/ч
давл.,
гПа
погр.,
м
1 марта, пн
пн100:00−14св119892 0.0 102020
03:00−15ссз129876 0.1 102220
06:00−14сз229897 0.1 102320
09:00−12сз229797 0.1 102597
12:00−7з248998 0.0 1025439
15:00−4з458899 0.1 1024522
18:00−8юз479563 0.0 1022124
21:00−6зюз5119579 0.1 1020458
2 марта, вт
вт200:00−3зюз61394100 0.1 1017568
03:00−2зюз71495100 0.9 1014601
06:000зюз71494100 0.2 1010630
09:00+1з71495100 0.3 1008703
12:00+1з612100100 0.4 1006608
15:00+1зсз4998100 0.8 1006606
18:00−1зсз489281 0.3 1005299
21:00−2зсз389690 0.5 1006256
3 марта, ср
ср300:00−4зсз4109497 0.1 1007231
03:00−5зсз479795 0.1 1007149
06:00−5зсз4119665 0.0 1008421
09:00−7сз6119180 0.1 1010654
12:00−5сз71089100 0.1 1011878
15:00−4сз71087100 0.3 1012903
18:00−7зсз488689 0.0 1013151
21:00−6з499575 0.1 1014261
4 марта, чт
чт400:00−5з5109594 0.1 1012348
03:00−4зюз5109596 0.3 1011395
06:00−3зюз61194100 0.1 1010557
09:00−3юз81487100 0.2 1007707
12:000юз91692100 0.1 1004716
15:00+1зюз9158999 0.1 10021065
18:000зюз91684100 0.0 9991071
21:00−1зюз81690100 0.1 999819
5 марта, пт
пт500:000з71398100 0.9 1000824
03:00−5зсз488998 1.2 1003205
06:00−9зсз349442 0.0 100647
09:00−7зсз249450 0.0 1009192
12:00−4зсз248375 0.0 1010573
15:00−3зсз348085 0.0 1011729
18:00−6сз228898 0.0 101221
21:00−8в119195 0.0 101221